Wind_Speed
17 17 17 17 17 17 18 18 19 20 20 20 21 21 21 22 22 22 23 23 23 24 25 25 26 26 27 26 27 27 28 28 29 30 30 30 30 31 31 32 32 33 34 34 35 35 36 37 37 38 39 39 40 40 40 40 41 41 41 42 43 44 46 47 48 48 49 50 50 51 52 53 54 55 56 57 58 59 60 61 62 63 64 64 65 66
14 15 15 16 17 17 17 17 17 18 18 18 19 19 20 20 21 22 22 23 23 24 25 25 26 27 27 27 27 28 28 28 29 30 30 30 31 31 32 32 33 34 35 35 36 37 37 38 39 39 40 40 41 41 41 41 42 42 43 44 45 47 48 50 51 51 52 53 54 54 55 56 57 58 59 60 61 62 63 64 64 65 66 66 67 68
14 14 15 16 16 16 16 16 17 17 18 18 19 19 20 21 22 23 23 23 24 24 24 25 25 26 27 27 27 28 27 28 29 30 30 31 32 32 32 33 34 35 36 36 37 37 38 39 40 40 41 41 42 42 42 43 43 44 45 46 48 50 51 53 53 54 55 56 57 57 58 58 59 60 61 61 62 63 64 64 65 66 67 67 68 68
14 14 15 15 15 16 16 16 17 17 18 19 19 20 21 22 22 23 23 23 24 24 24 25 25 26 28 28 28 28 28 29 30 30 31 32 33 33 34 35 36 36 37 37 38 39 39 40 41 42 42 43 43 43 44 44 45 45 47 49 51 53 54 55 56 57 57 57 58 59 59 60 60 61 61 62 63 64 65 65 66 67 67 67 68 69
14 14 15 15 16 16 17 17 17 18 19 19 20 20 21 21 22 23 23 23 24 24 25 26 26 26 28 29 30 29 29 30 31 31 31 33 34 35 36 36 37 37 37 38 39 40 40 42 43 43 44 44 44 45 45 46 47 48 51 53 55 56 57 58 58 59 59 59 59 60 60 60 61 61 62 63 64 65 66 66 67 68 68 69 69 70
15 15 15 16 16 16 17 18 18 18 19 19 20 20 20 21 22 23 24 24 24 25 26 27 28 26 26 29 31 31 30 31 31 31 31 34 35 36 37 37 38 38 39 39 40 41 42 43 44 45 45 45 45 46 47 48 50 52 55 56 57 58 58 59 59 60 60 60 61 61 61 61 62 62 62 64 65 66 67 68 68 69 70 71 71 72
15 16 16 16 16 17 17 18 18 18 19 19 20 21 21 22 22 23 24 25 25 25 26 28 30 28 24 27 32 33 31 31 32 32 32 35 36 37 37 38 39 40 40 40 41 42 44 44 45 46 46 46 46 48 49 51 53 55 57 58 58 59 59 60 60 60 61 61 62 62 62 63 63 63 64 65 67 67 67 68 69 70 71 72 73 73
15 16 16 17 17 17 18 18 18 18 19 19 20 21 22 22 23 23 24 25 25 25 26 28 30 30 25 25 31 33 32 33 33 34 35 36 38 38 39 39 40 41 41 41 42 43 44 45 45 46 46 47 48 51 52 54 55 56 57 58 59 59 60 60 61 61 62 62 63 63 63 63 64 65 65 66 68 68 69 69 70 71 71 72 73 73
16 16 16 17 17 17 17 18 18 19 19 20 20 21 22 23 23 25 25 26 26 25 27 28 30 32 27 25 30 33 32 34 35 36 37 38 40 40 41 41 41 42 42 41 42 44 45 45 45 45 47 49 51 53 55 56 57 57 58 58 59 60 60 61 62 62 62 63 63 63 64 64 65 66 66 67 68 69 70 71 71 71 72 72 73 73
16 16 16 17 17 17 17 18 19 19 20 21 22 22 23 24 25 26 27 27 28 27 28 29 30 33 28 23 30 34 33 35 37 37 38 39 41 41 42 42 43 43 42 41 42 44 45 44 44 46 49 52 54 56 57 57 58 58 59 59 60 60 61 61 62 62 63 63 63 64 65 65 66 67 68 68 69 71 72 72 72 72 72 73 73 74
17 17 17 17 18 18 18 19 20 21 22 22 23 24 25 26 27 27 28 29 30 28 28 29 30 33 29 25 31 36 35 37 38 37 39 41 42 42 42 43 44 43 41 40 41 43 43 43 45 48 50 54 56 57 58 58 58 59 59 60 60 61 62 62 62 62 63 64 64 65 66 66 67 68 69 70 70 71 72 72 72 72 72 73 74 76
18 18 18 18 19 19 20 20 21 22 23 23 25 26 26 27 28 28 28 30 31 30 30 30 30 31 29 27 31 35 36 39 40 40 41 43 44 44 43 44 44 43 41 39 40 41 42 44 46 49 53 55 57 57 57 58 58 59 60 60 61 61 62 62 62 63 64 64 65 66 67 68 69 70 71 71 71 71 72 72 72 73 74 75 76 78
18 18 18 19 19 20 21 21 22 23 23 24 25 26 27 29 29 30 30 31 32 31 31 31 31 29 27 28 32 35 38 39 40 42 43 45 46 46 45 44 45 44 42 41 41 41 42 45 48 51 54 55 55 56 57 58 59 59 60 60 61 61 62 62 63 64 64 65 66 67 68 69 70 70 70 70 70 70 71 72 73 74 75 77 78 80
19 19 19 20 20 21 22 22 23 24 25 25 26 27 28 30 32 33 33 34 34 34 33 32 32 29 27 30 35 37 39 39 40 42 43 44 45 46 46 47 47 47 46 44 43 44 45 48 51 53 54 55 56 57 58 59 59 59 60 60 60 61 62 62 63 64 64 65 66 67 67 68 68 68 68 68 69 69 70 72 73 75 77 78 80 82
20 20 21 21 22 22 23 24 25 26 26 26 27 28 29 30 33 34 35 37 37 37 36 34 32 30 30 32 36 38 39 40 41 41 42 42 43 46 48 48 49 48 48 47 47 48 50 52 54 55 55 56 57 58 58 59 59 59 59 60 60 61 62 62 63 63 64 65 66 66 66 66 67 67 67 67 68 69 71 73 74 76 78 80 81 83
21 21 22 23 23 23 24 24 25 27 28 27 28 29 30 31 33 34 36 38 40 41 39 36 34 31 30 31 34 37 38 38 40 40 40 42 44 46 47 48 48 49 48 49 49 51 52 53 54 55 56 57 57 58 58 59 59 59 60 60 61 62 62 63 63 64 64 65 65 65 66 66 66 66 66 67 68 70 72 74 75 77 79 81 83 84
21 22 23 24 24 23 24 24 26 28 29 29 30 30 31 32 33 35 38 38 40 43 42 40 38 32 30 30 30 33 35 36 39 41 42 44 45 46 47 47 48 48 48 49 51 52 53 53 55 55 56 57 57 57 58 58 59 59 60 61 61 62 62 63 64 64 65 65 65 66 66 66 66 66 67 68 69 71 73 75 77 78 80 82 84 86
21 21 23 24 24 24 24 25 26 28 29 30 30 31 33 34 34 36 38 40 41 44 45 44 42 35 30 29 28 31 36 38 41 43 44 45 45 46 47 47 47 47 48 50 52 53 53 54 55 56 56 56 57 57 58 58 59 59 60 61 62 62 63 63 64 65 65 65 66 66 66 66 66 66 67 69 70 72 74 76 78 80 82 84 85 86
21 21 21 24 25 25 25 26 26 28 29 30 30 32 33 35 37 37 39 41 42 46 47 47 46 38 29 27 31 35 40 42 43 44 45 46 46 47 47 47 48 49 50 52 52 53 55 55 56 56 57 57 57 58 58 58 59 60 61 61 62 63 64 65 65 66 66 66 66 66 66 66 66 67 68 70 71 73 75 77 79 81 83 84 84 83
22 22 21 23 25 25 26 26 27 28 29 30 31 32 34 36 38 38 39 40 42 46 47 49 50 39 28 29 35 38 42 43 45 47 48 48 47 48 48 48 50 51 52 53 53 54 56 56 57 57 57 58 58 58 58 58 59 60 61 62 62 63 65 66 66 67 67 67 66 66 66 66 67 68 69 71 72 74 75 77 79 81 82 82 80 78
23 23 23 23 25 26 27 27 29 29 31 31 32 33 34 36 38 40 41 40 42 46 47 50 51 39 29 32 38 39 43 45 47 50 50 50 49 49 49 50 51 52 52 53 54 56 57 57 58 58 58 58 58 58 58 58 60 61 61 62 63 64 65 66 67 67 67 66 66 65 65 66 67 68 70 72 73 75 76 78 80 81 81 79 77 75
25 25 24 25 26 27 27 28 30 31 32 33 33 34 35 36 39 41 43 42 44 47 47 51 52 40 33 34 38 40 44 46 48 51 52 52 51 50 51 51 52 53 53 55 56 57 58 58 58 58 58 59 58 58 58 59 60 61 62 62 63 65 66 66 67 67 66 66 65 65 65 66 67 69 70 72 73 75 77 79 80 80 79 77 75 72
28 28 27 26 27 28 29 30 31 33 34 34 34 34 35 37 38 41 44 44 46 48 47 51 54 43 37 38 41 42 45 46 49 52 52 52 51 51 52 52 53 54 54 56 57 57 58 58 59 59 59 59 58 58 58 59 60 61 62 63 64 65 66 66 66 66 65 65 64 64 65 66 67 69 70 72 73 75 77 79 79 79 77 75 72 70
30 31 31 30 29 28 29 31 32 34 35 36 35 35 37 38 39 41 44 45 47 48 46 51 55 48 40 42 46 46 47 49 52 54 53 53 52 53 53 53 54 54 55 56 57 57 58 58 59 59 58 59 58 58 58 59 60 61 62 63 64 65 66 66 66 65 65 64 64 64 65 66 67 68 70 71 73 75 77 77 77 76 73 70 67 66
33 34 35 35 34 32 31 33 34 35 36 36 36 37 38 39 41 42 44 45 48 48 47 51 54 50 44 46 47 48 50 52 54 55 54 53 53 54 54 54 54 55 55 56 57 58 58 58 59 59 59 58 58 57 58 60 61 61 62 64 65 66 66 66 66 65 64 63 63 64 65 66 67 68 69 71 72 74 76 76 75 72 68 65 64 64
35 35 36 38 38 38 37 38 39 38 37 37 38 38 39 40 42 43 45 46 47 48 50 50 52 52 49 48 47 47 51 55 56 55 54 54 54 54 54 54 55 55 56 57 57 58 58 59 59 59 59 58 57 57 59 60 61 62 63 64 65 66 66 66 65 64 63 62 63 64 65 66 67 68 69 71 72 74 75 75 73 69 64 62 62 62
37 37 37 38 39 39 39 41 41 41 39 39 39 40 41 41 42 43 45 45 45 49 52 49 50 54 52 48 46 47 52 55 55 54 54 54 54 54 54 55 55 56 56 57 58 58 59 59 59 59 59 57 57 58 59 61 61 62 63 64 65 66 66 65 64 63 62 62 63 63 64 66 67 68 69 70 72 74 75 74 70 65 62 60 60 60
39 38 38 39 39 39 40 41 42 43 42 40 40 41 41 42 42 43 44 43 44 51 53 49 49 56 53 47 46 50 53 55 54 53 53 53 54 55 55 56 56 56 57 57 58 59 59 59 59 59 58 57 57 58 60 61 61 62 64 65 65 66 65 64 63 62 62 62 63 63 64 65 67 68 69 70 72 73 74 72 67 62 59 59 59 58
41 41 40 41 40 40 40 42 43 44 43 42 41 41 40 41 42 43 44 43 46 52 53 50 51 55 52 48 50 53 54 54 53 52 53 53 55 56 56 56 56 56 57 58 58 59 59 60 60 59 58 56 57 59 60 61 62 63 64 65 65 65 64 63 62 62 62 62 63 63 64 65 67 68 69 70 72 73 73 70 65 60 57 57 58 57
43 43 43 43 43 41 41 42 43 44 44 42 40 40 40 42 42 43 44 45 47 51 52 51 53 54 50 49 53 54 54 54 53 52 53 54 56 56 56 56 56 57 58 58 59 59 59 60 60 59 57 56 57 59 61 61 62 63 64 64 65 64 63 62 62 61 61 62 62 63 64 65 66 67 68 69 71 72 71 67 62 58 56 56 57 57
44 45 45 46 47 44 42 43 43 45 45 42 39 40 41 42 42 44 45 46 48 50 50 51 54 53 50 51 54 54 53 54 53 53 54 55 56 56 56 56 57 58 58 59 59 59 60 60 60 58 57 56 58 60 61 61 62 63 63 64 64 63 62 62 61 61 61 62 62 63 64 65 66 67 67 69 70 71 69 65 60 57 55 56 56 56
44 46 46 48 50 48 45 45 45 46 46 43 41 41 42 42 44 45 47 48 49 51 51 52 54 53 52 53 54 54 54 54 54 54 55 56 57 57 57 57 57 58 59 59 59 59 60 60 59 58 56 56 58 60 60 61 61 62 63 63 63 62 62 61 61 61 61 61 62 63 64 65 65 66 67 68 70 69 67 63 58 56 55 55 56 55
45 46 47 50 52 51 48 49 49 49 48 44 43 42 42 44 47 48 50 50 50 51 51 53 54 54 54 56 56 56 56 55 55 55 55 57 58 58 57 57 58 58 59 59 59 60 60 60 59 57 56 57 58 60 60 60 61 62 62 63 62 61 61 61 60 61 61 61 61 62 63 64 64 65 66 67 69 68 65 62 58 55 54 54 55 55
46 47 48 51 53 53 51 51 52 52 49 47 45 44 45 47 50 52 52 51 50 51 52 54 55 55 56 58 58 58 57 57 57 56 56 58 59 58 58 58 58 59 59 59 59 60 60 59 58 56 55 57 58 59 60 60 61 62 62 61 61 61 61 60 60 60 60 60 61 62 62 63 63 64 65 66 67 67 64 61 58 55 54 54 54 54
47 47 49 52 54 54 53 53 55 54 51 49 47 46 47 50 53 55 54 52 52 52 52 55 55 56 57 59 59 59 58 59 59 58 58 60 60 58 58 58 59 59 59 59 59 59 59 58 56 55 55 57 58 59 60 60 61 61 61 61 60 60 60 60 60 60 60 60 60 61 62 62 62 63 64 65 66 65 63 60 57 55 54 54 54 54
47 48 51 52 54 54 55 55 58 57 53 49 47 48 49 52 54 56 56 54 52 52 54 56 57 57 59 60 60 60 60 60 60 58 59 61 60 59 59 59 59 60 60 59 59 59 59 58 55 54 55 57 58 59 59 60 60 60 60 60 60 60 60 60 59 59 59 59 60 60 61 61 61 62 62 64 64 63 62 59 57 55 54 53 53 53
48 50 52 53 54 55 56 57 60 60 55 50 50 52 53 54 56 58 59 56 52 52 56 58 58 59 60 61 61 60 60 61 60 58 60 61 61 60 60 60 60 60 60 60 60 59 58 57 55 54 55 57 58 59 59 59 60 60 59 59 59 59 59 59 59 58 58 59 59 59 59 60 60 60 61 62 62 61 60 59 57 55 54 53 53 52
50 52 53 55 56 56 57 60 62 62 58 55 55 56 56 57 58 60 62 59 54 55 58 58 59 61 61 61 62 61 61 61 60 59 60 62 61 60 61 61 61 61 60 60 59 59 58 55 54 54 55 57 58 58 59 59 59 59 59 58 58 58 59 58 58 58 58 58 58 58 58 58 58 58 60 60 60 60 59 58 57 55 54 52 52 51
53 54 55 57 57 57 59 62 63 63 60 57 57 57 57 58 60 62 64 62 58 59 60 59 61 62 62 63 63 62 62 62 61 60 61 61 61 61 61 61 61 61 60 59 59 58 56 54 53 53 55 56 57 57 58 58 58 58 58 57 58 58 58 58 57 57 57 57 57 57 57 57 57 57 58 59 59 58 57 57 56 55 53 52 51 50
55 57 58 59 58 59 61 63 64 63 60 57 58 59 59 60 62 64 65 64 61 61 62 62 63 63 63 64 64 63 63 63 62 61 61 61 61 61 61 61 61 61 60 59 58 57 55 53 52 53 55 56 56 57 57 57 57 57 56 57 57 57 57 57 56 56 57 56 56 56 56 56 56 56 57 57 57 57 56 56 55 55 53 52 50 49
58 59 60 60 60 61 64 66 67 64 60 58 60 60 60 62 64 65 66 65 63 63 63 63 64 64 64 65 65 63 63 63 63 62 61 61 61 61 62 62 61 60 59 58 58 56 53 52 52 53 55 55 56 56 56 56 56 56 56 56 56 57 56 56 56 56 56 56 56 55 55 55 55 55 56 56 56 56 56 55 55 54 54 52 50 49
60 61 62 62 62 64 66 69 69 66 62 61 62 62 62 65 66 66 66 66 64 63 63 64 64 64 65 65 65 64 63 62 63 62 62 62 62 62 62 62 61 59 58 57 57 54 52 51 52 53 54 55 55 55 55 55 55 55 55 55 55 56 56 55 55 55 55 55 55 54 54 54 54 54 55 55 55 55 55 55 54 54 54 53 51 49
61 63 64 63 64 66 69 70 70 69 67 65 64 64 65 66 65 65 66 66 65 63 63 64 64 64 65 66 66 64 63 62 62 62 62 62 62 62 62 61 60 58 57 56 55 53 51 51 52 53 54 54 55 54 54 54 54 54 54 55 55 55 55 55 55 55 55 54 54 54 54 54 54 54 54 55 55 54 54 54 54 54 54 53 52 49
63 64 65 65 66 68 71 71 69 69 69 67 65 66 67 66 65 65 66 66 64 63 63 64 65 65 66 67 66 65 63 62 62 62 62 62 62 63 62 61 59 57 56 55 54 51 50 50 52 53 54 54 54 54 53 53 54 54 54 54 55 55 55 55 54 54 54 54 54 53 54 54 54 54 54 54 54 54 55 55 54 54 54 54 52 50
65 65 67 67 68 70 71 70 68 68 69 69 68 67 66 65 65 66 67 66 64 64 65 65 65 65 66 67 67 65 63 62 62 62 62 62 62 62 62 60 57 55 55 54 52 50 50 50 52 53 53 53 53 53 53 53 53 53 54 54 54 55 55 54 54 54 54 54 54 54 53 54 54 54 54 54 54 54 55 55 55 54 54 54 53 51
66 68 70 70 71 72 71 69 68 70 71 71 69 67 65 66 66 67 67 67 65 65 65 65 66 66 67 68 67 64 63 62 62 62 62 62 63 62 61 58 56 55 54 53 51 49 49 50 52 53 53 53 52 52 52 52 52 53 53 53 54 54 54 54 54 54 54 54 54 54 53 54 54 54 54 55 55 55 56 56 56 55 55 54 53 51
68 71 73 73 73 74 72 70 70 71 72 71 68 66 66 67 67 67 68 67 65 65 65 65 66 66 67 68 66 64 62 61 61 62 62 62 62 61 59 56 54 54 53 52 50 49 49 51 52 53 53 53 52 52 52 52 52 52 53 53 54 54 54 54 54 54 54 54 54 54 54 54 54 54 55 56 56 56 57 58 58 57 56 56 54 52
71 75 76 75 74 74 74 73 72 72 71 69 67 65 66 67 67 67 67 66 64 64 65 65 66 67 67 67 65 62 61 61 61 62 62 62 62 59 56 54 53 53 52 50 49 49 49 51 52 52 53 52 51 51 51 51 51 52 52 53 53 53 54 54 54 54 54 54 54 55 55 55 55 55 55 56 57 57 58 58 59 59 58 58 56 54
75 77 77 77 76 75 75 75 74 73 70 66 64 65 66 67 67 67 66 65 64 65 65 65 66 67 67 66 63 61 61 61 61 62 62 62 60 57 54 53 53 52 51 49 48 49 49 51 52 52 52 51 51 51 51 51 51 51 52 52 53 53 54 54 54 54 54 55 55 55 56 56 56 56 56 56 57 58 59 59 60 59 59 59 59 57
77 78 78 79 79 77 76 75 74 74 71 66 64 65 67 67 68 67 66 65 65 65 65 66 66 67 67 64 61 60 60 61 62 62 62 60 57 54 52 52 52 51 49 48 48 48 49 50 51 52 51 51 51 51 51 51 51 51 51 52 52 53 53 54 54 55 55 55 56 56 56 57 57 57 57 57 57 58 58 60 61 61 60 59 59 58
78 78 79 80 80 78 76 73 72 72 71 66 64 65 66 67 67 66 65 65 65 65 66 66 67 67 64 61 59 59 60 62 62 62 60 57 54 52 51 51 50 49 48 47 47 48 49 50 51 51 51 50 50 50 51 51 51 51 51 52 52 53 53 54 54 55 55 56 56 57 57 58 58 58 58 58 58 59 58 59 60 61 62 61 60 59
Wind_Direction
300 300 301 301 301 301 301 300 299 299 299 299 299 300 301 301 301 302 303 304 305 305 306 307 307 307 307 307 306 305 305 305 304 303 303 303 302 300 299 299 297 296 296 296 297 297 297 296 296 295 295 295 295 295 294 294 293 293 293 294 295 296 297 297 297 296 295 295 295 294 294 294 294 293 292 292 291 290 290 289 289 288 288 288 287 287
305 305 305 305 306 305 305 304 304 305 306 306 306 306 306 306 306 307 308 308 308 308 308 307 307 306 305 305 304 304 305 304 303 302 303 302 300 299 299 298 297 297 297 298 298 298 298 297 297 297 297 297 296 296 295 295 294 294 294 295 296 297 297 296 296 296 295 295 295 294 294 293 293 292 292 291 290 290 289 289 288 288 288 287 287 286
310 310 309 309 308 308 308 309 309 310 309 309 309 309 310 310 310 310 310 309 307 306 306 305 305 303 303 303 303 304 305 304 302 302 302 301 299 299 299 298 297 298 299 299 299 298 298 298 298 298 297 297 296 295 295 294 293 293 294 294 295 295 295 295 294 294 294 294 294 293 293 293 292 292 291 291 290 290 289 289 289 288 288 287 287 286
312 312 312 311 311 311 311 311 311 310 309 310 311 312 312 312 311 309 308 307 305 304 304 304 304 303 304 305 305 304 305 303 302 303 302 301 300 300 299 298 298 299 299 299 298 298 298 298 298 297 297 296 295 294 293 293 292 292 293 293 294 294 294 294 294 294 294 294 294 293 293 292 292 292 292 292 291 290 290 290 289 289 288 288 287 287
315 315 314 314 314 313 312 311 311 311 312 313 314 313 312 310 308 306 305 305 304 305 305 305 304 305 307 307 306 306 306 304 304 304 302 300 300 299 298 298 298 299 298 297 297 297 297 297 297 296 296 295 294 293 293 293 292 292 293 294 295 296 296 295 295 295 295 294 294 293 293 293 293 293 293 292 291 291 291 291 291 290 290 289 288 288
318 317 317 316 314 312 311 312 314 314 315 314 312 310 308 306 305 304 304 305 305 306 307 306 305 307 309 308 306 305 306 305 304 303 300 298 298 297 296 296 297 296 296 296 296 297 297 297 296 295 294 294 294 294 294 293 293 293 294 296 297 297 296 296 295 295 295 295 295 294 294 294 294 294 293 293 292 292 293 293 292 292 291 291 290 289
320 319 318 315 313 313 314 315 316 315 313 311 308 306 305 304 304 304 304 305 306 307 307 306 306 308 312 310 305 304 305 304 301 299 297 296 295 294 294 295 295 295 296 296 297 297 297 296 295 294 294 294 295 294 294 293 294 294 296 297 297 296 296 295 296 296 296 296 296 295 295 295 295 294 294 294 294 294 294 293 293 292 292 291 291 290
321 319 317 316 316 316 316 316 315 312 310 307 305 304 303 303 304 304 304 305 306 306 306 305 305 308 315 312 303 301 303 301 298 297 296 295 295 294 294 295 296 295 295 296 296 296 296 295 294 294 295 295 295 295 294 294 294 295 296 296 296 296 296 296 297 297 297 297 296 296 296 296 295 295 295 295 295 295 294 293 293 292 291 291 290 289
321 320 318 318 318 316 315 314 311 310 308 307 306 306 305 305 306 305 305 305 305 306 305 305 306 308 316 316 302 299 301 298 297 297 297 297 297 296 296 296 296 294 295 296 297 297 296 296 296 296 297 297 296 294 294 294 295 296 297 297 297 297 297 297 298 298 298 298 298 297 297 297 297 296 296 296 296 295 294 294 293 292 291 291 290 289
322 321 320 320 318 316 314 313 312 312 311 310 310 310 309 308 308 308 308 307 307 308 307 307 309 310 320 323 304 301 303 299 298 299 299 299 296 296 296 296 295 294 296 298 298 297 298 298 299 298 297 295 294 293 294 296 298 298 298 297 297 298 298 299 299 299 299 299 298 298 298 298 298 298 298 297 297 296 295 294 293 293 292 292 291 291
325 324 322 321 319 317 317 316 316 315 314 314 313 313 312 311 311 311 310 309 309 310 309 310 312 314 323 325 307 304 305 301 300 301 300 298 295 296 296 295 295 296 299 300 299 299 299 299 297 296 294 292 292 294 297 298 298 298 298 298 299 299 300 300 300 300 300 300 300 300 300 300 300 299 298 298 297 296 295 295 294 294 294 294 294 293
326 325 323 323 322 321 321 321 319 318 317 317 317 317 315 313 313 312 311 311 311 312 313 314 316 319 323 320 310 306 304 302 303 303 300 298 298 299 298 298 299 302 303 303 301 300 299 297 294 292 291 292 295 297 298 299 299 299 300 300 301 301 301 301 301 301 301 302 302 302 302 301 301 300 299 299 298 298 297 297 297 296 296 296 295 294
329 328 328 329 328 327 326 325 323 322 321 321 321 319 317 316 315 315 315 313 313 315 316 316 318 322 324 317 310 305 303 303 303 302 300 300 301 302 302 303 306 307 308 306 304 301 298 295 292 291 293 296 299 300 300 301 301 301 302 302 302 302 302 302 302 302 303 303 302 302 302 301 301 300 300 300 299 299 299 298 298 297 296 295 294 293
336 336 336 335 334 332 331 329 327 326 325 326 324 322 321 321 319 320 318 317 317 317 318 319 321 325 326 317 309 305 304 303 302 301 301 302 303 305 307 309 310 311 311 309 306 303 299 297 296 298 301 302 303 302 302 302 302 302 302 302 302 302 302 302 303 303 302 302 302 301 301 300 300 300 300 300 299 299 298 297 296 295 295 294 294 294
342 341 338 337 337 335 334 332 329 328 328 328 326 324 324 323 321 321 320 319 319 317 318 321 322 329 330 319 310 307 306 304 302 302 303 304 305 307 309 311 311 312 311 310 307 304 302 302 304 305 305 304 304 304 303 303 303 303 302 302 303 303 303 303 303 302 302 301 301 301 300 300 300 300 300 299 298 297 297 296 296 296 296 296 295 295
346 342 338 337 337 336 335 333 331 329 328 328 327 326 325 323 322 321 319 319 318 317 319 320 322 332 334 322 313 308 306 304 303 303 304 305 307 308 310 312 312 312 311 309 306 304 305 306 306 305 305 305 304 304 304 303 303 303 303 304 304 304 303 303 302 302 301 301 301 301 301 301 301 300 300 299 298 298 297 298 298 298 298 297 297 297
347 343 338 336 337 337 336 334 332 329 328 329 329 327 326 325 323 322 320 321 319 317 319 320 323 335 337 326 316 309 306 304 303 304 305 306 309 310 312 313 312 311 309 307 306 306 307 307 305 305 304 305 304 304 304 304 304 305 305 305 304 304 304 303 303 303 303 303 303 303 303 302 302 301 300 299 299 300 300 300 300 300 300 300 301 301
348 346 340 335 337 338 336 335 333 330 329 330 331 330 328 326 325 324 322 323 323 320 322 322 326 339 340 326 318 311 308 308 308 308 309 310 312 313 314 314 313 310 308 307 307 308 308 306 305 305 305 305 305 305 306 306 306 306 305 305 305 304 304 304 304 304 304 305 305 304 304 303 302 301 301 301 302 302 302 303 303 303 303 304 303 303
348 350 344 337 339 339 337 336 334 331 331 331 332 332 329 327 326 326 324 325 325 322 324 325 328 341 344 326 319 317 313 313 313 312 311 312 314 315 316 315 313 310 309 309 309 309 307 307 307 307 307 307 307 307 307 307 306 306 306 306 305 305 305 306 306 306 307 307 306 305 304 303 303 303 303 304 304 304 305 305 305 306 306 306 305 305
348 350 347 340 339 339 338 336 333 332 330 331 332 331 329 327 325 325 324 325 324 321 325 325 326 342 349 327 321 319 315 315 313 311 312 313 316 317 317 315 312 311 311 310 310 308 308 308 308 308 308 308 308 308 308 307 306 306 306 306 307 307 308 308 308 308 308 307 306 305 305 304 305 305 306 306 306 307 307 307 308 308 308 308 307 305
347 347 345 341 338 338 337 334 332 331 329 330 331 329 328 326 324 323 322 323 322 319 323 323 324 341 352 330 321 318 314 314 312 310 312 314 316 316 315 313 312 312 311 310 310 309 309 309 309 309 309 309 309 308 307 306 306 307 307 308 309 309 309 309 309 309 308 307 306 306 306 306 306 307 307 308 309 309 309 310 310 310 310 309 307 305
343 343 341 338 335 334 334 331 329 329 327 327 328 328 326 324 323 322 321 322 320 317 322 321 320 341 353 330 319 316 314 313 309 309 311 313 315 314 312 312 311 311 311 311 310 310 310 310 309 309 309 309 308 307 306 307 307 308 309 309 310 310 310 310 309 308 307 307 306 306 306 307 308 308 309 310 311 311 311 312 312 312 311 309 307 305
340 340 338 336 334 332 331 328 326 325 324 324 325 325 323 322 322 320 319 321 317 317 323 318 316 338 349 327 317 317 313 310 307 308 311 313 314 313 311 311 311 311 311 311 311 310 310 309 309 309 309 308 308 307 307 308 309 309 310 310 311 311 310 309 308 308 307 307 307 307 307 308 309 310 311 312 312 313 313 313 313 312 310 308 307 306
339 339 336 333 333 333 330 327 324 322 320 321 322 321 319 319 319 317 317 316 315 319 322 314 316 335 340 323 319 318 313 309 306 308 312 313 313 312 311 311 310 310 310 310 310 310 309 309 309 309 309 308 307 307 308 309 310 310 310 311 312 311 309 308 308 308 308 307 307 307 308 309 310 311 312 313 314 314 315 314 313 312 310 308 307 307
339 339 335 332 332 332 331 329 326 323 321 321 321 319 318 318 316 315 314 312 314 319 317 312 320 332 330 322 321 318 311 307 306 310 314 313 313 312 311 311 310 310 310 310 310 309 309 309 309 309 308 308 308 308 309 310 310 311 311 312 311 310 309 308 308 308 308 308 308 308 309 310 312 313 314 315 316 316 316 315 313 311 309 308 308 308
338 338 335 332 332 333 332 330 328 326 324 323 323 320 319 317 314 313 310 309 314 315 313 317 325 326 323 323 322 315 307 305 308 312 313 313 312 311 310 310 309 309 309 309 310 310 310 309 309 309 309 309 309 309 310 311 311 311 312 311 310 309 309 309 309 309 308 308 309 310 311 312 313 314 315 316 317 317 316 315 313 311 309 308 308 309
337 337 334 331 331 332 330 329 327 325 325 325 324 322 320 318 314 311 308 311 313 309 313 327 327 320 323 328 320 310 305 305 309 312 312 312 312 310 310 309 309 309 310 310 310 310 310 310 310 310 310 309 309 309 310 311 311 312 311 311 310 310 310 310 310 309 309 309 310 311 312 313 314 315 316 317 318 317 317 316 313 311 309 310 310 311
337 337 334 330 331 330 328 328 325 324 325 325 324 324 322 317 314 311 310 312 310 305 316 330 322 316 326 328 315 307 306 307 309 310 311 312 311 310 310 309 309 310 310 310 310 311 311 310 310 310 310 309 309 310 311 311 312 312 311 311 311 310 311 311 310 310 310 311 311 312 313 314 315 316 317 318 319 319 318 316 314 311 310 311 312 313
335 336 334 331 331 330 328 326 323 323 324 324 326 326 321 317 315 312 310 309 305 306 317 325 317 318 327 323 311 308 308 308 309 310 311 312 311 311 310 310 311 311 311 311 311 311 311 310 310 310 310 309 310 311 312 312 312 312 312 311 311 311 311 311 311 311 311 311 312 312 313 314 316 317 318 319 320 319 319 317 314 311 310 311 313 314
333 334 333 331 331 333 329 324 322 322 321 323 327 325 321 319 316 311 308 306 305 309 317 319 316 321 324 317 311 310 309 308 309 311 312 313 312 311 310 311 312 311 311 312 311 311 311 310 311 310 310 310 310 311 312 312 312 312 312 312 312 312 312 311 311 311 312 312 312 313 314 315 316 317 319 320 321 320 319 317 314 311 310 311 313 314
331 332 332 329 330 334 331 325 322 320 320 324 327 325 323 320 313 309 308 306 307 312 317 316 317 322 321 314 312 312 309 309 310 311 313 313 312 311 311 312 312 312 312 312 311 311 311 310 310 310 310 310 311 312 312 312 313 312 312 312 312 312 312 312 312 312 312 313 313 314 314 315 317 318 319 321 321 321 319 317 313 311 310 311 312 314
329 329 330 328 328 333 331 326 323 320 321 326 329 327 324 317 312 310 309 309 310 314 316 317 318 320 318 314 314 313 311 311 311 312 314 314 313 312 313 313 312 312 311 311 311 311 310 310 310 309 309 309 311 312 312 313 313 313 313 313 313 313 312 312 312 313 313 313 313 314 315 316 317 319 320 322 322 321 319 317 313 310 309 310 311 313
327 327 328 326 327 331 331 327 324 322 324 328 330 327 322 316 313 312 312 313 313 314 316 317 317 318 317 316 316 315 314 313 312 313 315 315 313 313 313 312 311 311 311 311 311 310 310 310 309 309 309 309 311 312 313 313 313 313 313 313 313 313 313 313 313 313 314 314 314 315 315 316 318 319 321 323 323 322 320 317 314 311 309 309 310 311
326 325 325 324 325 328 329 326 323 323 326 330 331 327 321 316 314 314 315 316 315 315 316 315 316 318 317 316 317 317 316 314 314 315 317 315 313 313 313 312 311 311 311 311 311 310 310 310 309 308 308 310 311 312 313 313 313 313 314 314 314 313 313 313 314 314 314 314 315 315 316 317 318 320 322 323 323 322 320 318 315 312 310 309 309 310
324 323 323 323 323 325 327 325 322 323 328 331 331 326 320 316 314 315 317 317 316 317 315 313 316 318 317 316 316 316 316 316 315 317 317 315 313 313 312 311 312 312 311 311 311 310 310 309 308 308 309 311 312 313 313 314 314 314 314 314 314 314 314 314 315 315 315 315 315 316 317 318 319 320 323 324 324 322 320 318 316 313 311 310 309 310
323 321 321 321 321 323 324 322 320 323 328 332 330 324 317 315 315 316 316 318 319 316 312 313 316 317 316 316 316 315 316 316 316 317 316 314 313 313 312 312 312 312 311 311 311 310 310 309 308 308 309 311 313 313 314 314 315 315 315 314 314 314 315 315 316 315 316 316 316 317 318 318 319 321 323 325 325 323 321 319 317 315 312 310 310 310
321 320 320 319 320 322 321 319 319 322 328 333 330 322 317 316 316 315 316 320 321 314 311 314 316 315 315 316 315 314 315 316 316 317 314 313 313 313 312 313 312 312 311 311 310 310 309 309 308 308 310 312 313 314 314 315 315 315 315 315 315 315 316 316 316 316 316 316 317 318 318 319 320 322 324 326 325 324 322 321 319 317 314 311 310 310
320 319 319 318 320 321 318 317 319 322 329 333 328 321 318 317 316 314 316 321 320 313 312 314 313 314 315 315 314 314 314 314 316 315 313 313 314 313 313 313 312 311 310 310 310 309 308 308 307 308 311 312 313 314 315 315 315 315 315 315 315 316 316 316 317 317 317 317 318 318 319 319 320 322 325 327 326 325 324 323 321 318 315 312 311 311
319 319 318 318 320 319 316 315 317 320 328 331 324 319 317 315 314 314 315 319 318 313 312 312 311 313 314 314 314 313 313 314 315 315 313 313 313 313 312 312 311 310 309 309 309 309 308 307 307 309 311 313 314 315 315 315 316 315 316 316 316 316 317 318 318 318 318 319 319 319 320 320 320 323 326 328 328 327 326 325 323 320 317 314 312 311
318 318 318 318 319 317 314 313 314 320 328 327 320 318 317 314 312 313 314 317 315 312 312 311 310 312 313 313 314 313 312 313 314 314 313 313 312 312 312 311 310 309 309 308 309 308 307 306 307 310 312 314 314 315 315 315 316 316 316 316 317 318 318 319 319 319 319 320 320 320 320 320 321 324 327 329 329 328 328 327 325 323 320 316 313 312
317 317 317 318 317 314 312 311 313 320 327 323 318 317 315 312 311 312 313 314 313 311 310 309 309 311 312 313 313 312 311 311 312 313 313 312 312 312 311 311 310 309 308 308 308 307 307 307 308 311 313 314 315 315 315 316 316 316 317 317 318 319 319 320 320 320 320 321 321 321 320 320 321 324 327 330 330 330 330 329 328 325 322 319 315 312
315 316 316 316 315 312 311 310 313 320 324 321 317 316 313 311 311 311 312 312 311 309 308 308 308 310 312 313 313 311 310 310 311 312 312 312 313 312 311 311 309 308 308 308 308 307 306 307 310 312 313 315 315 315 316 316 316 317 317 318 319 320 321 321 321 321 321 321 321 321 320 320 321 324 327 330 332 332 332 331 330 328 325 321 317 314
314 314 314 313 312 311 310 310 313 319 321 318 316 314 311 310 310 309 309 310 309 307 306 306 308 310 311 312 312 310 309 310 310 311 312 312 313 312 311 310 309 308 308 308 308 307 306 308 310 312 314 315 315 315 316 316 317 317 318 319 320 321 322 322 322 322 322 322 322 322 321 321 322 324 327 330 332 333 333 333 332 330 328 324 320 315
313 313 312 310 310 309 308 309 314 317 317 315 313 312 310 309 308 307 308 308 307 305 304 306 308 310 311 312 311 310 309 309 310 311 312 312 312 312 311 309 308 307 308 308 307 306 306 309 311 313 314 315 315 316 316 317 317 318 319 320 321 322 323 323 323 323 323 323 323 322 322 322 322 324 327 330 332 333 334 334 334 332 330 327 323 318
312 311 307 306 306 306 306 309 314 315 313 312 312 311 310 308 306 307 307 307 305 304 304 306 308 309 311 311 310 309 309 309 310 311 312 312 312 311 310 308 307 307 307 307 307 306 307 310 312 313 315 315 315 316 317 317 318 318 319 321 322 323 324 324 324 324 324 324 324 324 323 323 323 324 327 329 331 333 334 335 335 333 331 329 325 320
310 307 304 304 305 304 306 311 314 313 312 311 311 310 308 306 306 306 306 306 304 303 304 306 307 309 311 311 310 309 308 309 310 311 311 311 311 310 309 308 307 307 307 307 306 307 308 310 312 314 315 315 315 316 317 318 318 319 320 322 324 325 325 325 325 325 325 325 325 325 324 324 324 325 327 329 331 332 333 335 335 334 332 330 328 323
308 303 302 303 304 304 308 312 312 311 311 310 310 309 307 305 305 305 305 304 303 303 304 306 307 309 310 310 309 308 308 309 310 311 311 311 311 310 308 307 307 307 307 307 307 307 309 311 313 314 314 315 315 316 317 318 318 319 320 322 324 325 326 326 326 326 326 326 326 326 326 325 325 326 327 329 330 332 333 334 335 334 333 331 329 326
303 300 301 303 303 305 309 311 310 309 310 309 308 307 305 304 305 304 303 303 302 302 303 305 307 309 309 309 308 307 308 309 310 310 310 310 310 309 307 306 306 306 306 307 307 308 310 311 313 313 314 315 315 316 317 318 319 319 321 323 325 326 326 327 327 326 327 327 327 327 327 327 326 327 328 329 330 332 333 333 334 334 333 331 330 327
299 299 301 302 304 307 309 310 308 307 307 308 307 305 304 304 304 303 303 302 301 302 304 305 307 308 309 308 307 307 308 309 309 309 310 310 309 307 306 305 306 306 306 307 307 308 310 312 313 313 314 314 315 316 317 318 319 319 321 323 325 326 327 327 328 327 328 328 328 329 329 328 328 328 328 329 331 332 332 333 333 333 333 331 329 327
298 300 302 303 305 308 309 308 307 306 307 307 305 303 303 303 303 303 302 301 301 302 304 305 307 308 308 307 307 308 308 308 308 309 309 309 307 306 305 305 305 306 306 307 308 309 311 312 312 313 313 314 315 316 317 318 319 320 321 323 325 326 328 328 328 328 329 329 330 330 330 329 329 329 329 330 331 332 332 332 331 331 331 330 328 326
300 303 304 305 306 307 307 307 306 306 307 307 305 303 303 303 303 302 301 301 301 303 304 305 307 307 307 307 307 307 307 307 307 308 308 307 306 305 304 305 305 306 306 307 308 310 311 312 312 312 313 314 315 316 317 318 319 320 321 323 325 327 328 329 329 329 330 330 331 331 331 330 330 330 330 330 331 332 332 332 331 329 328 328 327 325
Height
5750 5749 5748 5747 5746 5746 5745 5744 5743 5742 5740 5739 5738 5737 5736 5734 5733 5732 5731 5729 5728 5727 5725 5724 5723 5721 5720 5719 5718 5717 5715 5714 5713 5711 5710 5709 5708 5706 5705 5703 5702 5700 5698 5697 5695 5693 5692 5691 5689 5688 5686 5684 5682 5681 5679 5677 5675 5673 5672 5669 5668 5666 5664 5662 5660 5658 5657 5655 5653 5652 5650 5648 5646 5644 5642 5640 5637 5635 5633 5630 5628 5626 5624 5623 5621 5619
5748 5747 5746 5745 5744 5743 5742 5741 5740 5739 5738 5737 5735 5734 5733 5732 5730 5729 5728 5727 5725 5724 5722 5721 5720 5718 5717 5716 5715 5714 5713 5711 5709 5708 5707 5705 5704 5702 5701 5699 5697 5695 5694 5692 5690 5689 5687 5686 5684 5682 5681 5679 5677 5675 5674 5672 5670 5668 5666 5664 5661 5660 5658 5655 5653 5652 5650 5648 5646 5644 5642 5640 5638 5636 5634 5632 5629 5626 5624 5622 5620 5618 5616 5614 5612 5610
5747 5746 5744 5743 5742 5741 5740 5739 5738 5737 5735 5734 5733 5732 5730 5729 5727 5726 5725 5724 5722 5721 5720 5718 5717 5715 5714 5714 5712 5711 5710 5708 5706 5705 5703 5702 5700 5699 5697 5695 5693 5691 5690 5688 5686 5684 5682 5681 5679 5677 5676 5674 5672 5670 5668 5666 5664 5662 5660 5658 5656 5654 5651 5649 5647 5645 5643 5641 5639 5637 5635 5633 5631 5628 5626 5624 5621 5617 5615 5614 5611 5609 5606 5604 5603 5600
5745 5744 5743 5742 5740 5739 5738 5737 5736 5735 5733 5732 5731 5729 5728 5726 5725 5723 5722 5721 5720 5718 5717 5716 5715 5713 5711 5710 5709 5708 5707 5705 5703 5702 5700 5698 5696 5694 5692 5690 5688 5687 5685 5683 5681 5679 5678 5676 5674 5673 5671 5669 5667 5665 5663 5661 5659 5657 5655 5652 5650 5648 5645 5642 5640 5638 5636 5634 5632 5629 5627 5625 5623 5621 5618 5616 5612 5608 5606 5605 5602 5599 5597 5595 5593 5590
5743 5742 5741 5740 5739 5738 5736 5735 5734 5732 5731 5729 5728 5727 5725 5724 5722 5721 5720 5719 5717 5716 5714 5713 5712 5710 5708 5706 5705 5704 5703 5701 5699 5698 5696 5693 5691 5689 5687 5686 5684 5682 5680 5678 5677 5675 5674 5672 5670 5668 5666 5664 5662 5659 5658 5655 5653 5651 5649 5646 5644 5641 5638 5635 5633 5631 5629 5627 5624 5621 5620 5617 5615 5613 5610 5606 5603 5599 5597 5596 5592 5589 5587 5584 5582 5579
5742 5740 5739 5738 5737 5736 5735 5733 5732 5730 5729 5727 5726 5725 5723 5722 5721 5719 5717 5716 5714 5713 5711 5709 5708 5708 5707 5704 5701 5700 5700 5698 5695 5693 5691 5688 5686 5684 5682 5680 5679 5677 5676 5674 5673 5671 5670 5668 5666 5663 5661 5659 5657 5655 5653 5650 5648 5645 5642 5640 5637 5635 5631 5628 5625 5623 5621 5619 5616 5614 5612 5609 5607 5605 5602 5597 5594 5592 5588 5586 5583 5579 5576 5573 5571 5568
5740 5739 5738 5736 5735 5734 5733 5731 5730 5728 5727 5726 5724 5723 5721 5720 5719 5717 5715 5714 5712 5711 5709 5707 5704 5704 5705 5702 5697 5695 5695 5693 5690 5688 5686 5683 5681 5680 5678 5676 5675 5673 5672 5671 5669 5668 5665 5663 5660 5658 5656 5654 5651 5649 5647 5644 5642 5639 5637 5634 5631 5628 5624 5621 5618 5616 5613 5611 5608 5605 5603 5601 5597 5595 5594 5588 5584 5583 5580 5576 5573 5570 5566 5563 5560 5557
5738 5737 5736 5734 5733 5732 5731 5729 5728 5727 5725 5724 5722 5721 5719 5718 5716 5715 5713 5711 5710 5709 5707 5704 5702 5700 5702 5701 5694 5691 5690 5687 5685 5683 5682 5679 5677 5675 5674 5672 5671 5669 5668 5667 5665 5663 5661 5658 5655 5652 5650 5648 5645 5642 5640 5638 5635 5633 5630 5627 5624 5620 5617 5614 5611 5608 5605 5602 5599 5597 5594 5592 5588 5585 5584 5580 5576 5574 5570 5567 5564 5560 5557 5554 5550 5547
5737 5735 5734 5733 5731 5730 5729 5728 5726 5725 5723 5722 5720 5719 5717 5715 5714 5712 5710 5709 5707 5706 5704 5702 5700 5697 5698 5698 5691 5687 5686 5682 5680 5679 5677 5675 5673 5671 5669 5668 5666 5664 5663 5663 5661 5658 5655 5652 5650 5647 5644 5641 5638 5636 5633 5631 5629 5626 5623 5620 5616 5613 5609 5606 5603 5600 5597 5593 5590 5588 5585 5583 5580 5575 5574 5571 5567 5564 5560 5557 5555 5550 5547 5544 5540 5537
5735 5734 5733 5731 5730 5729 5728 5726 5724 5723 5721 5719 5718 5716 5714 5712 5711 5709 5707 5705 5704 5703 5701 5699 5697 5693 5694 5694 5687 5682 5682 5678 5676 5675 5673 5670 5668 5666 5665 5663 5661 5659 5659 5659 5656 5653 5650 5648 5645 5642 5638 5634 5631 5629 5627 5624 5622 5619 5616 5612 5608 5605 5601 5598 5595 5591 5588 5584 5581 5578 5575 5573 5570 5566 5563 5561 5558 5553 5549 5547 5544 5540 5536 5533 5529 5526
5734 5732 5731 5730 5728 5727 5725 5724 5722 5720 5718 5717 5715 5713 5711 5709 5707 5705 5703 5701 5700 5700 5698 5696 5694 5690 5689 5689 5682 5677 5676 5673 5671 5670 5668 5665 5662 5661 5660 5657 5656 5655 5655 5654 5651 5648 5646 5643 5640 5636 5632 5628 5625 5623 5621 5618 5615 5612 5608 5605 5601 5597 5593 5590 5586 5583 5579 5575 5572 5569 5565 5562 5560 5556 5553 5551 5548 5543 5539 5536 5533 5529 5526 5522 5518 5515
5732 5731 5729 5728 5726 5724 5723 5721 5719 5717 5715 5714 5712 5710 5708 5705 5704 5702 5700 5698 5696 5696 5694 5692 5691 5688 5686 5684 5678 5673 5671 5668 5666 5665 5662 5659 5657 5656 5655 5653 5651 5651 5651 5649 5646 5644 5641 5638 5634 5630 5626 5622 5620 5617 5614 5611 5607 5604 5601 5597 5593 5589 5585 5582 5578 5574 5570 5566 5563 5559 5556 5552 5549 5546 5543 5540 5537 5533 5528 5525 5522 5518 5515 5511 5508 5504
5730 5729 5727 5725 5724 5722 5720 5718 5716 5715 5713 5711 5709 5707 5705 5702 5700 5698 5697 5694 5693 5691 5690 5689 5687 5686 5684 5680 5675 5670 5666 5663 5661 5659 5656 5654 5651 5649 5649 5648 5647 5646 5646 5644 5641 5639 5636 5632 5628 5624 5620 5618 5614 5610 5606 5603 5600 5596 5593 5589 5586 5582 5578 5574 5570 5566 5562 5558 5554 5551 5547 5543 5540 5536 5533 5529 5526 5522 5518 5514 5511 5508 5504 5501 5497 5493
5728 5726 5725 5723 5721 5719 5718 5716 5714 5712 5710 5708 5707 5704 5702 5699 5696 5694 5692 5690 5689 5687 5686 5685 5684 5683 5681 5676 5670 5665 5662 5659 5657 5654 5652 5649 5646 5643 5642 5642 5641 5640 5638 5637 5634 5631 5628 5624 5620 5617 5614 5610 5606 5603 5599 5596 5592 5589 5586 5582 5579 5575 5571 5567 5563 5558 5554 5550 5546 5543 5539 5535 5531 5528 5524 5520 5516 5513 5509 5505 5501 5498 5493 5489 5486 5481
5726 5724 5723 5721 5719 5717 5715 5713 5711 5709 5708 5706 5704 5701 5699 5697 5693 5690 5688 5685 5683 5682 5682 5681 5680 5680 5678 5672 5665 5661 5658 5654 5652 5650 5647 5645 5642 5639 5637 5636 5635 5633 5631 5628 5626 5623 5619 5616 5613 5609 5606 5602 5599 5596 5592 5588 5585 5582 5578 5575 5571 5567 5563 5559 5555 5551 5547 5543 5539 5535 5531 5527 5523 5519 5516 5512 5507 5503 5500 5495 5491 5487 5482 5478 5474 5469
5725 5723 5721 5719 5717 5716 5714 5712 5709 5707 5705 5704 5702 5699 5697 5694 5691 5688 5685 5683 5679 5676 5676 5677 5677 5677 5674 5669 5662 5657 5654 5650 5648 5646 5644 5641 5638 5636 5633 5632 5629 5627 5624 5621 5618 5615 5612 5609 5606 5602 5599 5595 5592 5588 5585 5582 5578 5575 5571 5567 5563 5559 5556 5552 5548 5544 5539 5535 5531 5526 5522 5518 5514 5510 5506 5503 5498 5493 5489 5485 5480 5476 5471 5465 5461 5455
5723 5721 5719 5717 5716 5714 5712 5710 5707 5705 5703 5701 5699 5696 5694 5691 5689 5685 5682 5680 5676 5671 5670 5671 5671 5673 5671 5665 5659 5653 5650 5647 5644 5642 5639 5636 5634 5632 5629 5627 5624 5621 5618 5615 5611 5608 5606 5603 5599 5596 5592 5589 5585 5581 5578 5574 5571 5567 5563 5559 5556 5552 5548 5544 5540 5535 5531 5526 5522 5517 5513 5509 5505 5501 5497 5493 5489 5484 5479 5474 5468 5464 5458 5452 5447 5441
5722 5720 5718 5715 5714 5712 5710 5708 5706 5703 5700 5698 5696 5694 5691 5688 5686 5683 5678 5675 5672 5667 5664 5663 5665 5668 5666 5660 5655 5650 5646 5643 5639 5636 5634 5631 5630 5627 5625 5622 5619 5615 5611 5608 5605 5602 5599 5595 5592 5589 5585 5582 5578 5574 5570 5566 5563 5559 5555 5552 5548 5544 5540 5536 5531 5527 5522 5518 5513 5509 5504 5500 5495 5492 5487 5483 5479 5474 5468 5463 5456 5451 5445 5439 5433 5427
5721 5719 5717 5714 5712 5710 5708 5706 5703 5701 5698 5696 5693 5691 5688 5684 5682 5679 5676 5672 5668 5663 5659 5656 5657 5662 5661 5655 5651 5647 5642 5638 5634 5631 5628 5627 5625 5622 5619 5616 5612 5608 5605 5602 5599 5595 5592 5588 5584 5581 5577 5573 5570 5566 5562 5559 5555 5551 5548 5544 5540 5535 5531 5526 5522 5517 5513 5508 5504 5499 5495 5491 5486 5482 5477 5473 5468 5463 5457 5452 5445 5439 5433 5426 5420 5413
5720 5718 5716 5713 5711 5708 5706 5704 5701 5699 5696 5693 5691 5689 5686 5682 5678 5675 5673 5670 5665 5660 5656 5651 5651 5656 5657 5650 5646 5642 5637 5633 5629 5625 5622 5621 5619 5616 5613 5610 5606 5602 5599 5595 5592 5588 5584 5581 5577 5573 5569 5565 5562 5558 5555 5551 5547 5544 5540 5536 5531 5527 5522 5517 5512 5508 5503 5499 5495 5490 5486 5481 5476 5472 5467 5462 5457 5452 5446 5440 5434 5427 5420 5414 5407 5401
5719 5717 5715 5712 5709 5707 5704 5702 5699 5697 5694 5691 5689 5686 5683 5679 5675 5672 5669 5668 5663 5658 5655 5649 5645 5652 5653 5646 5641 5637 5632 5628 5624 5619 5617 5615 5613 5611 5607 5603 5600 5596 5593 5589 5585 5581 5578 5574 5570 5566 5562 5559 5555 5551 5548 5544 5540 5536 5532 5528 5523 5518 5513 5508 5504 5499 5495 5491 5486 5481 5477 5472 5467 5462 5457 5452 5446 5441 5434 5428 5422 5415 5408 5401 5395 5390
5717 5715 5713 5711 5708 5705 5703 5700 5697 5694 5691 5689 5686 5684 5681 5677 5673 5668 5665 5664 5660 5655 5653 5647 5642 5647 5649 5642 5637 5633 5628 5623 5618 5614 5612 5610 5608 5605 5601 5597 5593 5590 5586 5583 5579 5574 5571 5567 5563 5559 5556 5552 5548 5544 5540 5537 5532 5528 5524 5520 5515 5510 5505 5501 5496 5492 5487 5483 5478 5473 5468 5464 5458 5453 5448 5442 5436 5430 5424 5417 5410 5404 5397 5391 5385 5380
5715 5713 5712 5709 5707 5704 5701 5698 5695 5692 5689 5686 5684 5681 5678 5674 5671 5666 5661 5659 5655 5651 5650 5644 5637 5640 5643 5637 5632 5629 5624 5618 5613 5610 5608 5605 5602 5599 5595 5591 5587 5584 5580 5576 5572 5568 5564 5560 5557 5553 5549 5545 5541 5537 5533 5529 5525 5520 5516 5512 5507 5502 5497 5493 5489 5484 5480 5475 5470 5465 5460 5455 5450 5445 5439 5433 5426 5420 5413 5407 5400 5394 5387 5381 5376 5370
5713 5711 5708 5707 5705 5703 5700 5696 5693 5689 5686 5684 5681 5678 5675 5671 5668 5663 5659 5656 5651 5648 5647 5640 5631 5633 5635 5631 5626 5622 5617 5612 5607 5605 5603 5599 5596 5592 5588 5585 5581 5577 5574 5570 5566 5562 5558 5554 5550 5546 5542 5538 5534 5530 5526 5522 5518 5513 5508 5504 5500 5495 5490 5486 5481 5477 5472 5467 5462 5457 5452 5447 5442 5436 5430 5424 5418 5411 5404 5398 5391 5385 5379 5373 5367 5361
5712 5709 5705 5702 5700 5699 5697 5694 5690 5687 5684 5681 5678 5675 5671 5667 5664 5659 5655 5652 5647 5645 5643 5636 5627 5627 5629 5625 5621 5616 5610 5604 5601 5599 5597 5593 5589 5585 5582 5578 5575 5571 5567 5563 5560 5556 5551 5547 5543 5539 5535 5531 5527 5523 5519 5514 5510 5505 5501 5496 5492 5488 5483 5478 5474 5469 5464 5459 5454 5449 5444 5439 5434 5428 5422 5416 5409 5402 5395 5389 5382 5376 5371 5365 5360 5354
5710 5707 5703 5699 5696 5693 5691 5688 5685 5682 5680 5677 5674 5671 5667 5664 5659 5655 5651 5647 5643 5639 5636 5632 5625 5621 5622 5621 5617 5611 5603 5598 5596 5594 5591 5587 5583 5579 5576 5572 5568 5565 5561 5557 5553 5549 5545 5541 5536 5532 5527 5523 5519 5515 5511 5507 5503 5498 5494 5489 5485 5481 5476 5470 5466 5461 5456 5451 5446 5441 5436 5430 5425 5419 5413 5407 5401 5394 5388 5381 5374 5368 5362 5357 5352 5347
5707 5705 5701 5697 5695 5691 5688 5684 5680 5677 5675 5673 5670 5667 5663 5659 5655 5650 5646 5643 5640 5634 5629 5629 5623 5616 5617 5618 5613 5605 5599 5594 5591 5589 5585 5581 5577 5573 5569 5565 5562 5558 5554 5550 5546 5542 5538 5533 5529 5524 5520 5516 5512 5508 5504 5500 5495 5491 5487 5482 5477 5472 5467 5462 5457 5452 5448 5443 5438 5432 5427 5422 5417 5411 5405 5399 5393 5386 5379 5372 5366 5360 5354 5349 5344 5339
5703 5702 5698 5695 5692 5689 5685 5681 5677 5673 5671 5669 5666 5663 5659 5654 5649 5646 5642 5639 5636 5628 5622 5624 5620 5610 5611 5613 5606 5599 5594 5590 5587 5584 5580 5576 5571 5567 5563 5559 5555 5551 5547 5543 5539 5534 5530 5526 5522 5517 5513 5509 5505 5501 5497 5492 5488 5484 5479 5474 5469 5464 5459 5454 5449 5444 5439 5434 5429 5424 5419 5414 5408 5403 5397 5390 5384 5377 5370 5363 5357 5351 5346 5341 5336 5331
5699 5697 5694 5691 5689 5687 5682 5678 5673 5669 5667 5665 5662 5658 5654 5649 5645 5641 5637 5634 5630 5623 5618 5618 5614 5607 5606 5605 5598 5592 5588 5584 5582 5579 5574 5570 5565 5560 5556 5552 5548 5544 5540 5535 5531 5527 5522 5518 5514 5510 5506 5502 5498 5494 5489 5485 5480 5476 5471 5466 5461 5456 5451 5446 5441 5436 5431 5426 5421 5416 5411 5406 5401 5395 5389 5382 5376 5369 5362 5355 5349 5343 5338 5334 5329 5324
5694 5692 5689 5686 5684 5683 5679 5674 5670 5666 5662 5661 5659 5654 5649 5644 5640 5635 5632 5628 5623 5618 5615 5612 5607 5604 5603 5598 5591 5587 5583 5578 5575 5572 5568 5563 5558 5553 5549 5545 5541 5536 5532 5528 5524 5519 5515 5511 5507 5503 5499 5495 5491 5487 5482 5478 5473 5468 5463 5458 5453 5448 5444 5438 5433 5429 5424 5419 5414 5409 5404 5398 5393 5387 5381 5374 5368 5360 5353 5347 5341 5336 5331 5326 5322 5317
5690 5687 5684 5680 5678 5678 5675 5670 5666 5661 5658 5657 5655 5650 5644 5639 5634 5630 5626 5623 5618 5613 5611 5606 5600 5599 5597 5591 5585 5582 5577 5572 5569 5566 5562 5557 5551 5546 5542 5538 5533 5529 5525 5521 5517 5512 5508 5504 5500 5496 5492 5488 5484 5480 5475 5470 5466 5461 5456 5451 5446 5441 5436 5431 5426 5421 5416 5411 5406 5401 5396 5390 5385 5379 5373 5366 5359 5353 5346 5339 5334 5329 5324 5319 5315 5310
5687 5683 5680 5675 5671 5671 5669 5664 5660 5656 5653 5651 5649 5645 5639 5633 5628 5625 5621 5617 5612 5608 5605 5600 5595 5592 5590 5585 5579 5576 5571 5566 5563 5559 5555 5550 5544 5539 5535 5531 5526 5522 5518 5514 5510 5506 5502 5497 5493 5489 5485 5481 5477 5473 5468 5463 5459 5454 5449 5444 5439 5433 5428 5424 5419 5414 5409 5404 5399 5394 5388 5383 5377 5371 5365 5358 5351 5345 5338 5332 5327 5322 5318 5313 5308 5303
5683 5679 5675 5670 5665 5664 5662 5657 5653 5649 5647 5646 5643 5639 5633 5628 5622 5619 5615 5612 5608 5603 5598 5594 5589 5586 5582 5577 5573 5569 5564 5560 5556 5553 5549 5543 5537 5532 5529 5524 5520 5516 5512 5508 5504 5499 5495 5491 5487 5483 5479 5475 5470 5465 5461 5456 5452 5447 5442 5436 5431 5426 5421 5416 5411 5406 5401 5396 5391 5386 5381 5375 5370 5364 5357 5351 5344 5337 5331 5325 5320 5315 5311 5306 5301 5297
5679 5675 5671 5666 5660 5658 5656 5651 5646 5643 5642 5640 5637 5632 5626 5621 5616 5612 5609 5607 5603 5598 5593 5587 5583 5580 5575 5569 5565 5561 5557 5553 5548 5545 5541 5535 5530 5526 5522 5518 5514 5510 5506 5501 5497 5492 5488 5484 5480 5476 5472 5468 5463 5458 5454 5450 5445 5440 5435 5429 5424 5419 5414 5409 5404 5399 5394 5389 5384 5379 5374 5368 5362 5356 5350 5344 5337 5330 5324 5318 5313 5308 5304 5299 5294 5290
5675 5671 5666 5662 5656 5652 5650 5646 5640 5637 5637 5635 5631 5626 5620 5614 5610 5606 5603 5601 5597 5592 5586 5581 5577 5574 5568 5562 5558 5554 5550 5546 5541 5538 5534 5528 5523 5520 5516 5511 5507 5503 5498 5494 5490 5486 5481 5477 5473 5469 5465 5461 5456 5451 5447 5442 5438 5432 5427 5422 5417 5412 5407 5401 5396 5391 5386 5382 5377 5371 5366 5360 5354 5349 5343 5337 5330 5323 5317 5311 5306 5301 5297 5292 5287 5283
5671 5667 5662 5657 5652 5648 5644 5640 5634 5631 5632 5631 5626 5620 5615 5609 5604 5600 5597 5596 5592 5585 5578 5574 5571 5567 5561 5556 5551 5547 5543 5539 5535 5531 5526 5520 5517 5513 5508 5504 5500 5495 5491 5486 5482 5478 5474 5470 5466 5462 5458 5454 5449 5444 5440 5435 5430 5425 5420 5415 5410 5404 5399 5394 5389 5384 5379 5375 5370 5364 5359 5353 5347 5342 5336 5330 5323 5316 5310 5304 5299 5294 5290 5285 5280 5276
5667 5662 5657 5652 5648 5644 5638 5634 5629 5625 5624 5624 5619 5613 5607 5602 5598 5592 5588 5590 5588 5578 5571 5568 5564 5559 5554 5549 5545 5540 5536 5532 5529 5526 5519 5513 5510 5506 5501 5497 5492 5488 5484 5479 5475 5471 5467 5463 5459 5455 5451 5447 5442 5437 5433 5428 5423 5418 5413 5408 5403 5397 5393 5388 5383 5378 5373 5368 5363 5358 5352 5347 5341 5336 5330 5323 5317 5310 5304 5298 5292 5287 5283 5278 5274 5269
5662 5657 5652 5647 5643 5639 5632 5626 5622 5618 5617 5616 5610 5604 5599 5595 5591 5584 5580 5582 5581 5572 5564 5561 5557 5551 5548 5543 5538 5534 5529 5525 5524 5520 5513 5507 5503 5499 5494 5490 5485 5481 5477 5472 5468 5465 5461 5457 5453 5449 5445 5440 5435 5430 5426 5421 5416 5411 5406 5401 5396 5391 5386 5381 5376 5371 5366 5361 5356 5351 5346 5340 5335 5330 5324 5317 5311 5304 5298 5292 5286 5281 5276 5272 5267 5262
5656 5651 5647 5641 5637 5633 5626 5620 5616 5613 5612 5610 5603 5597 5593 5588 5583 5577 5572 5572 5571 5564 5559 5555 5549 5544 5541 5536 5531 5527 5521 5517 5516 5513 5507 5501 5497 5492 5487 5483 5479 5474 5470 5466 5462 5458 5454 5450 5447 5443 5438 5433 5429 5424 5419 5415 5410 5405 5400 5395 5389 5384 5379 5374 5369 5364 5359 5354 5349 5344 5339 5333 5328 5323 5317 5311 5305 5298 5293 5286 5280 5275 5270 5265 5261 5257
5650 5645 5640 5636 5632 5626 5619 5614 5611 5609 5608 5604 5596 5591 5586 5581 5576 5570 5564 5562 5561 5556 5551 5547 5542 5538 5534 5528 5524 5520 5514 5509 5507 5505 5500 5495 5490 5486 5481 5476 5472 5467 5463 5459 5455 5451 5447 5443 5440 5436 5431 5426 5422 5417 5413 5408 5403 5398 5393 5388 5383 5378 5372 5367 5362 5357 5352 5347 5342 5337 5332 5327 5322 5317 5311 5305 5299 5292 5286 5281 5275 5269 5264 5259 5255 5250
5644 5639 5634 5629 5625 5620 5612 5606 5603 5603 5603 5598 5589 5584 5579 5573 5568 5564 5558 5554 5551 5547 5543 5539 5534 5530 5526 5521 5517 5513 5507 5502 5498 5496 5492 5488 5483 5479 5474 5469 5465 5460 5456 5452 5448 5444 5440 5436 5433 5429 5424 5420 5415 5411 5406 5401 5397 5392 5387 5382 5376 5371 5366 5361 5356 5351 5346 5341 5336 5330 5325 5321 5316 5311 5305 5299 5293 5286 5280 5275 5269 5264 5258 5253 5248 5244
5637 5632 5627 5622 5617 5611 5605 5599 5595 5595 5595 5590 5583 5577 5572 5566 5561 5556 5552 5547 5544 5539 5535 5531 5527 5522 5518 5514 5510 5505 5501 5496 5491 5487 5483 5479 5475 5470 5466 5461 5457 5453 5449 5445 5441 5437 5433 5429 5426 5422 5417 5413 5408 5404 5399 5394 5390 5385 5380 5375 5370 5365 5360 5355 5350 5345 5340 5335 5330 5324 5319 5314 5310 5305 5299 5293 5287 5281 5274 5268 5263 5258 5252 5247 5243 5238
5632 5625 5619 5615 5610 5603 5597 5592 5588 5585 5583 5580 5575 5570 5564 5559 5554 5549 5544 5540 5536 5532 5527 5523 5519 5515 5510 5507 5502 5497 5493 5488 5484 5480 5475 5471 5467 5462 5458 5454 5449 5445 5442 5437 5433 5430 5426 5422 5419 5415 5411 5406 5401 5397 5392 5387 5383 5378 5373 5369 5364 5358 5354 5349 5343 5339 5334 5329 5324 5318 5313 5308 5303 5298 5293 5287 5281 5275 5268 5262 5257 5251 5246 5241 5237 5232
5627 5620 5612 5607 5603 5597 5590 5587 5585 5581 5575 5571 5568 5563 5556 5551 5546 5541 5537 5533 5528 5524 5519 5516 5512 5507 5502 5499 5495 5490 5485 5481 5476 5472 5468 5463 5459 5455 5450 5446 5442 5438 5434 5430 5426 5423 5419 5415 5412 5408 5404 5400 5395 5390 5386 5381 5376 5371 5367 5362 5357 5352 5347 5342 5337 5332 5327 5322 5318 5312 5307 5302 5297 5292 5286 5281 5275 5269 5263 5257 5251 5245 5240 5235 5230 5226
5620 5613 5604 5599 5597 5592 5585 5582 5581 5576 5568 5562 5560 5556 5550 5543 5537 5532 5529 5526 5521 5516 5512 5508 5505 5500 5495 5491 5487 5482 5477 5473 5468 5464 5460 5456 5451 5447 5442 5438 5434 5431 5427 5423 5419 5416 5412 5408 5405 5401 5397 5393 5388 5384 5379 5374 5369 5365 5360 5356 5351 5346 5341 5336 5331 5326 5321 5316 5311 5306 5300 5295 5290 5285 5280 5274 5269 5263 5257 5251 5245 5239 5233 5228 5224 5220
5611 5602 5594 5591 5589 5583 5580 5579 5575 5568 5561 5555 5550 5547 5542 5536 5531 5525 5520 5517 5514 5509 5504 5501 5497 5493 5488 5483 5479 5474 5470 5466 5461 5457 5453 5448 5443 5439 5435 5431 5427 5423 5420 5416 5412 5409 5405 5401 5398 5394 5390 5386 5382 5377 5373 5368 5363 5358 5354 5349 5345 5339 5334 5330 5325 5320 5315 5310 5305 5300 5294 5289 5283 5278 5272 5267 5262 5256 5251 5245 5240 5234 5228 5223 5218 5213
5600 5589 5583 5582 5579 5572 5571 5573 5568 5560 5554 5549 5543 5539 5533 5527 5523 5518 5513 5509 5506 5501 5497 5493 5489 5485 5481 5475 5471 5466 5462 5458 5454 5450 5445 5440 5436 5431 5427 5423 5419 5416 5412 5409 5405 5402 5398 5394 5391 5387 5383 5380 5376 5371 5367 5362 5358 5352 5348 5343 5339 5334 5329 5324 5319 5313 5309 5304 5299 5293 5288 5283 5277 5272 5266 5260 5255 5249 5243 5238 5233 5228 5222 5216 5212 5208
5586 5578 5575 5573 5570 5565 5562 5561 5558 5553 5548 5542 5535 5530 5525 5519 5515 5511 5505 5501 5498 5494 5490 5487 5482 5478 5473 5468 5463 5459 5455 5451 5447 5442 5438 5433 5428 5424 5420 5416 5412 5409 5405 5402 5398 5395 5392 5388 5384 5380 5377 5373 5369 5365 5361 5356 5352 5347 5342 5338 5333 5328 5323 5318 5313 5308 5303 5298 5293 5288 5282 5277 5272 5266 5260 5254 5248 5242 5236 5231 5226 5221 5214 5209 5205 5202
5573 5569 5567 5562 5560 5560 5556 5551 5545 5542 5543 5539 5530 5521 5516 5512 5507 5504 5499 5494 5490 5487 5483 5479 5475 5470 5465 5460 5455 5451 5447 5443 5439 5435 5430 5425 5421 5417 5413 5409 5405 5402 5399 5395 5392 5389 5385 5381 5378 5374 5370 5366 5362 5358 5354 5350 5346 5341 5337 5332 5327 5323 5317 5312 5307 5302 5297 5292 5287 5282 5276 5271 5266 5261 5255 5249 5243 5236 5229 5223 5218 5214 5209 5202 5196 5192
5564 5562 5558 5552 5549 5550 5548 5542 5533 5528 5529 5531 5525 5515 5508 5504 5500 5496 5492 5487 5483 5480 5475 5471 5467 5463 5458 5453 5448 5444 5440 5436 5431 5427 5422 5418 5414 5410 5406 5402 5399 5396 5392 5389 5386 5382 5379 5375 5371 5367 5363 5360 5356 5352 5348 5344 5340 5335 5331 5326 5322 5317 5312 5307 5302 5297 5292 5287 5281 5276 5271 5265 5259 5254 5249 5243 5237 5231 5224 5217 5210 5205 5202 5198 5192 5185
5559 5555 5549 5542 5538 5538 5536 5532 5525 5518 5516 5516 5513 5506 5501 5496 5491 5488 5485 5480 5476 5472 5468 5464 5460 5455 5450 5446 5441 5437 5432 5428 5423 5419 5415 5411 5407 5403 5399 5396 5392 5389 5386 5383 5380 5376 5373 5369 5365 5361 5357 5353 5349 5346 5342 5338 5334 5329 5325 5321 5316 5311 5307 5302 5296 5291 5286 5280 5275 5270 5264 5259 5253 5248 5242 5236 5231 5225 5220 5214 5206 5198 5191 5187 5184 5180